Regional Weather Roundup
Issued by NWS

Home | Current Version | Previous Version | Graphics & Text | Print | Product List | Glossary On
Versions: 1 2 3 4 5 6 7 8 9 10 11 12 13 14 15 16 17 18 19 20 21 22 23 24 25 26 27 28 29 30 31 32 33 34 35 36 37 38 39 40 41 42 43 44 45 46 47 48 49 50
000
ASUS43 KMKX 042300
RWRWI

WISCONSIN REGIONAL WEATHER ROUNDUP
NATIONAL WEATHER SERVICE MILWAUKEE/SULLIVAN WI
600 PM CDT FRI SEP 04 2015

NOTE: "FAIR" INDICATES FEW OR NO CLOUDS BELOW 12,000 FEET WITH NO
SIGNIFICANT WEATHER AND/OR OBSTRUCTIONS TO VISIBILITY.

WIZ001-002-006>008-014>016-023>028-050000-
NORTHWEST WISCONSIN

CITY           SKY/WX    TMP DP  RH WIND       PRES   REMARKS
SUPERIOR ARPT  SUNNY     63  59  88 NE8G18    29.98R
ASHLAND        SUNNY     70  65  84 N8        29.97S
HAYWARD        SUNNY     82  69  64 S8        29.98R HX  85
SIREN          SUNNY     84  70  62 SE9       29.94R HX  89
CUMBERLAND     SUNNY     81  70  69 SE10      29.96S HX  84
RICE LAKE      MOSUNNY   82  70  66 SE9       29.98R HX  86
CHETEK         MOSUNNY   82  73  72 SE10G16   29.96S HX  87
LADYSMITH      SUNNY     82  65  54 SE8       30.01S HX  84
EAU CLAIRE     NOT AVBL
MENOMONIE      MOSUNNY   85  72  65 E10       29.94S HX  91
NEW RICHMOND   SUNNY     84  70  61 SE8       29.94R HX  88
OSCEOLA        MOSUNNY   85  72  66 SE8G20    29.94S HX  90
$$

WIZ003>005-009-010-017-018-050000-
NORTH CENTRAL WISCONSIN

CITY           SKY/WX    TMP DP  RH WIND       PRES   REMARKS
MANITOWISH WTR SUNNY     80  65  60 SE5       30.03R HX  82
ARBOR VITAE    SUNNY     82  66  56 SE7       30.03S HX  84
WOODRUFF       SUNNY     82  66  56 SE7       30.03S HX  84
RHINELANDER    SUNNY     80  64  58 E12       30.05S HX  82
EAGLE RIVER    MOSUNNY   80  60  51 SE5       30.04F HX  80
LAND O LAKES   SUNNY     80  62  54 SE7       30.06R HX  81
PHILLIPS       SUNNY     81  67  61 S7        30.01S HX  83
TOMAHAWK       SUNNY     80  65  59 SE5       30.03S HX  82
MEDFORD        SUNNY     77  68  72 SE6       30.03R
MERRILL        SUNNY     80  67  65 S6        30.03R HX  82
$$

WIZ029-030-035-036-043>047-050000-
CENTRAL WISCONSIN

CITY           SKY/WX    TMP DP  RH WIND       PRES   REMARKS
WAUSAU         SUNNY     80  66  62 VRB7      30.01S HX  82
MOSINEE        MOSUNNY   79  68  69 SE7       30.04R HX  81
MARSHFIELD     MOSUNNY   80  65  59 SE8       30.02S HX  82
STEVENS POINT  SUNNY     76  65  69 SE8       30.03S
WAUPACA        MOSUNNY   79  67  67 SE5       30.02S HX  81
WAUTOMA        NOT AVBL
WISC RAPIDS    MOSUNNY   79  64  60 E8        30.03R HX  81
CAMP DOUGLAS   NOT AVBL
$$

WIZ011>013-019>022-031-037>040-048>050-050000-
NORTHEAST WISCONSIN

CITY           SKY/WX    TMP DP  RH WIND       PRES   REMARKS
ANTIGO         MOSUNNY   76  65  68 SE9       30.05S
SHAWANO        NOT AVBL
OCONTO         SUNNY     74  68  82 E6        30.03S
STURGEON BAY   SUNNY     72  64  78 E7        30.06F
GREEN BAY      MOSUNNY   76  68  76 NE9       30.03S
MANITOWOC      NOT AVBL
APPLETON       MOSUNNY   75  64  69 VRB3      30.02S
CLINTONVILLE   MOSUNNY   79  66  65 E8        30.02S HX  81
OSHKOSH        SUNNY     75  65  70 SE3       30.03S
$$

WIZ032>034-041-042-053>061-050000-
SOUTHWEST WISCONSIN

CITY           SKY/WX    TMP DP  RH WIND       PRES   REMARKS
LA CROSSE      SUNNY     87  69  54 SE8       29.94F HX  91
SPARTA         MOSUNNY   84  70  62 SE7       29.98S HX  88
VIROQUA        MOSUNNY   85  69  59 SE9       30.00S HX  88
BOSCOBEL       PTSUNNY   89  70  53 VRB3      29.96S HX  94
PRAIRIE DU CHI SUNNY     88  66  47 SE3       29.95S HX  90
PLATTEVILLE    SUNNY     84  73  67 SW6       29.99S HX  90
$$

WIZ056-057-062-063-064-067-068-050000-
SOUTH CENTRAL WISCONSIN

CITY           SKY/WX    TMP DP  RH WIND       PRES   REMARKS
REEDSBURG      SUNNY     83  72  69 SE5       29.99S HX  88
BARABOO/DELLS  SUNNY     82  68  62 E8        30.00S HX  85
LONE ROCK      NOT AVBL
MINERAL POINT  MOSUNNY   86  72  62 S3        30.00S HX  92
MADISON        MOSUNNY   82  71  69 NE9       29.99S HX  86
MIDDLETON      MOSUNNY   84  70  62 E8        30.00S HX  89
WATERTOWN      PTSUNNY   80  72  75 E3        30.01S HX  84
MONROE         MOSUNNY   86  70  58 S5        29.99S HX  90
JANESVILLE     MOSUNNY   88  72  58 CALM      29.98S HX  94
$$

WIZ051-052-058>065-066-070>072-050000-
SOUTHEAST WISCONSIN

CITY           SKY/WX    TMP DP  RH WIND       PRES   REMARKS
MILWAUKEE      MOSUNNY   70  65  84 E9        30.03F
WAUKESHA       MOSUNNY   73  64  73 E8        30.03S
MILWAUKEE/TIMM NOT AVBL
RACINE         PTSUNNY   71  65  81 NE9       30.05S
BURLINGTON     MOSUNNY   76  66  71 E10       30.01F
KENOSHA        SUNNY     71  65  81 E12       30.03F
FOND DU LAC    MOSUNNY   75  67  76 E6        30.03S
SHEBOYGAN      CLOUDY    70  65  84 NE7       30.04R
WEST BEND      PTSUNNY   72  64  78 CALM      30.03S
JUNEAU         MOSUNNY   78  67  68 NE3       30.03S HX  80
$$

LSZ147-162-050000-
LAKE SUPERIOR

STATION/POSITION TIME  TEMP    WIND        PRES    WAVE
                       AIR SEA DIR/SP/G            HT/PER
                 (UTC) (F)     (DEG/KT/KT) (MB)    (FT/S)
W MID LAKE BUOY  2150   62 58   50/ 12/ 14 1015.7F   1
DEVILS ISLAND    2200   62      70/ 12/ 14 1015.3F
PORT WING        2200   56      30/ 19/ 21 1014.2F
SAXON HARBOR     2200   70     300/  6/  7 1014.6
$$

LMZ867-665-643>646-050000-
LAKE MICHIGAN

STATION/POSITION TIME  TEMP    WIND        PRES    WAVE
                       AIR SEA DIR/SP/G            HT/PER
                 (UTC) (F)     (DEG/KT/KT) (MB)    (FT/S)
CHAMBERS ISLAND  2200   70      50/  6/  9 1017.3S
S GREEN BAY BUOY 2200   68 68   50/ 10/ 12 1018.3
N MID LAKE BUOY  2150   68 67   20/  8/  8 1017.2S   1/ 4
NORTHPORT PIER   2200   70      90/  5/  8 1017.3F
SISTER BAY       2211   75      90/ 10/ 14   N/A
ALGOMA LAKESHORE 2229           70/ 11/ 14   N/A
KEWAUNEE LAKESHO 2200   66      30/  3/  5 1016.4F
SHEBOYGAN LAKESH 2200   61      30/  2/  2 1017.3R
PORT WASHINGTON  2240   65      30/  5/  9 1017.6R
ATWATER BUOY     2200   62 60  270/  4/  6 1018.8R
MILWAUKEE LAKESH 2210   63      80/  2/  2   N/A
S MID LAKE BUOY  2150   68 71   10/  8/ 10 1016.6R   1
KENOSHA   LAKESH 2200   65      40/  5/  5 1016.9R
$$

TC  - TEMPERATURE IN CELSIUS
VSB - VISIBILITY IN STATUTE MILES
WCI - WIND CHILL INDEX
HX  - HEAT INDEX



USA.gov is the U.S. government's official web portal to all federal, state and local government web resources and services.